Glasgow, MT

6:37 AM MDT on March 23, 2017 (GMT -0600)
Wokal-Glasgow International

Weather History for KGGW - August, 2013

Change the Weather History Date:

Saturday, August 31, 2013

  Actual Average Record
Temperature  
Mean Temperature 69 °F 65 °F  
Max Temperature 81 °F 79 °F 104 °F (1929)
Min Temperature 56 °F 51 °F 36 °F (1949)
Degree Days  
Heating Degree Days 0 3  
Month to date heating degree days 5 34  
Since 1 June heating degree days 99 158  
Since 1 July heating degree days 15 53  
Cooling Degree Days 4 3  
Month to date cooling degree days 247 196  
Year to date cooling degree days 477 495  
Since 1 June cooling degree days 468 478  
Growing Degree Days 19 (Base 50)    
Moisture  
Dew Point 47 °F    
Average Humidity 51    
Maximum Humidity 75    
Minimum Humidity 27    
Precipitation  
Precipitation 0.00 in 0.03 in 0.47 in (2011)
Month to date precipitation 0.18 1.24  
Year to date precipitation 12.59 9.17  
Snow  
Snow 0.00 in 0.00 in 0.00 in (2002)
Month to date snowfall 0.0 0.0  
Since 1 June snowfall 0.0 0.0  
Since 1 July snowfall 0.0 0.0  
Snow Depth 0.00 in    
Sea Level Pressure  
Sea Level Pressure 29.98 in    
Wind  
Wind Speed 15 mph (NW)    
Max Wind Speed 32 mph    
Max Gust Speed 39 mph    
Visibility 10 miles    
Events      
T = Trace of Precipitation, MM = Missing Value Source: NWS Daily Summary

Daily Weather History Graph

Daily Weather History Graph

Search for Another Location

Airport or City:

Trip Planner

Search our weather history database for the weather conditions in past years. The results will help you decide how hot, cold, wet, or windy it might be!

Date:

Astronomy

Aug. 31, 2013 Rise Set
Actual Time 6:23 AM MDT 7:49 PM MDT
Civil Twilight 5:50 AM MDT 8:21 PM MDT
Nautical Twilight 5:11 AM MDT 9:00 PM MDT
Astronomical Twilight 4:28 AM MDT 9:42 PM MDT
Moon 1:41 AM MDT (8/31) 5:01 PM MDT (8/31)
Length of Visible Light 14h 30m
Length of Day
13h 25m
Waning Crescent, 20% of the Moon is Illuminated
Aug 31
Waning Crescent
Sep 5
New
Sep 12
First Quarter
Sep 19
Full
Sep 26
Last Quarter

Hourly Weather History & Observations

Time (MDT) Temp. Dew Point Humidity Pressure Visibility Wind Dir Wind Speed Gust Speed Precip Events Conditions
12:53 AM 66.0 °F 46.9 °F 50% 29.86 in 10.0 mi NNW 3.5 mph - N/A   Clear
1:53 AM 66.0 °F 46.0 °F 48% 29.87 in 10.0 mi NW 6.9 mph - N/A   Clear
2:53 AM 64.9 °F 44.1 °F 47% 29.89 in 10.0 mi NW 8.1 mph - N/A   Clear
3:53 AM 63.0 °F 46.0 °F 54% 29.90 in 10.0 mi NW 13.8 mph - N/A   Clear
4:53 AM 60.1 °F 48.9 °F 67% 29.91 in 10.0 mi NW 13.8 mph - N/A   Clear
5:53 AM 57.0 °F 48.9 °F 74% 29.95 in 10.0 mi NW 10.4 mph - N/A   Clear
6:53 AM 57.9 °F 48.9 °F 72% 29.97 in 10.0 mi WNW 13.8 mph - N/A   Clear
7:53 AM 61.0 °F 48.9 °F 64% 30.00 in 10.0 mi NW 11.5 mph - N/A   Clear
8:53 AM 66.0 °F 48.0 °F 52% 30.00 in 10.0 mi WNW 17.3 mph 23.0 mph N/A   Clear
9:53 AM 69.1 °F 48.0 °F 47% 30.00 in 10.0 mi WNW 18.4 mph 25.3 mph N/A   Clear
10:53 AM 73.0 °F 46.0 °F 38% 30.00 in 10.0 mi WNW 18.4 mph 25.3 mph N/A   Clear
11:53 AM 77.0 °F 45.0 °F 32% 29.99 in 10.0 mi WNW 17.3 mph 25.3 mph N/A   Clear
12:53 PM 78.1 °F 41.0 °F 27% 29.99 in 10.0 mi WNW 25.3 mph 36.8 mph N/A   Clear
1:53 PM 79.0 °F 43.0 °F 28% 29.98 in 10.0 mi WNW 27.6 mph 34.5 mph N/A   Clear
2:53 PM 81.0 °F 45.0 °F 28% 29.98 in 10.0 mi WNW 23.0 mph 34.5 mph N/A   Clear
3:53 PM 78.1 °F 48.0 °F 35% 29.99 in 10.0 mi NW 25.3 mph 35.7 mph N/A   Clear
4:53 PM 77.0 °F 46.9 °F 34% 30.00 in 10.0 mi NW 24.2 mph 33.4 mph N/A   Clear
5:53 PM 75.9 °F 46.9 °F 36% 30.01 in 10.0 mi WNW 19.6 mph 26.5 mph N/A   Clear
6:53 PM 73.9 °F 48.0 °F 40% 30.01 in 10.0 mi NW 18.4 mph 23.0 mph N/A   Partly Cloudy
7:53 PM 69.1 °F 48.9 °F 49% 30.03 in 10.0 mi NNW 10.4 mph - N/A   Clear
8:53 PM 64.9 °F 48.9 °F 56% 30.05 in 10.0 mi NNW 8.1 mph - N/A   Clear
9:53 PM 63.0 °F 50.0 °F 63% 30.06 in 10.0 mi North 9.2 mph - N/A   Clear
10:53 PM 59.0 °F 50.0 °F 72% 30.06 in 10.0 mi NNE 5.8 mph - N/A   Clear
11:53 PM 59.0 °F 51.1 °F 75% 30.06 in 10.0 mi North 4.6 mph - N/A   Clear